Showing default

LMRST-SAT, 40971

Orbit data source: Space-Track

LMRST-SAT, 40971 is a payload satellite owned by JPL (US) in LEO that was launched on Thu, 08 Oct 2015 UTC via an ATLAS V 401 launch vehicle from the Air Force Western Test Range (AFWTR). Payloads include a variety of satellites, spacecraft, and rockets equipped with specific instruments for various scientific and technological missions. These include communications satellites like Starlink; space stations such as the ISS; scientific satellites like the Hubble; Earth observation satellites from companies like Planet Labs, Umbra, and HawkEye 360; GPS; miniature CubeSats for education and research; and military/defense satellites.

Loading next visibility...
LMRST-SAT details
Identifier
40971, 2015-058H
Orbit
LEO
Last TLE update21 hours ago
Origin
Flag of USJPL (US)
ManufacturerJPL
MissionOperational Commercial Technology
Bus & MotorCUBESAT 3U, Unknown motor
Mass3 kg wet, 3 kg dry
Launch date (UTC)
2015-10-08 (9 years ago)
Launch vehicle
ATLAS V 401
Launch site
Air Force Western Test Range (AFWTR)
Object type
Payload
Rocket body
Debris
Shape & HBRBox, 0.3 m
Radar Cross Section0.075 m², Small (<0.1 m²)

Expand to show TLE details & history

TLE from 21 hours ago
0 LMRST-SAT
1 40971U 15058H   24360.60166471  .00010826  00000-0  93208-3 0  9998
2 40971  64.7754 142.7612 0184780 248.0264 110.1121 14.85446987 33394
Epoch: 2024-12-25T14:26Z
Definitive object data (Epoch: 2024-12-25T14:26:23.83Z)
Latitude-0.00003°
Longitude-168.43117°
Altitude660.689 km
Speed7.502 km/s
True Right ascension09h 31m 02s
True Declination0° 00' 00"
Sunlit
Object was in full shadow at TLE epoch
Visualization TLE readout
Latitude-9.59004°
Longitude-175.66185°
Altitude640.05 km
Speed7.525 km/s
Apparent Right ascension06h 20m 50s
Apparent Declination-57° 50' 18"
Sunlit
Object is in full shadow
Visualization observer readout
Local Sidereal Time10:45:10
Azimuth211.703° SW
Elevation-22.189°
Doppler factor1
Orbital elements
Apogee altitude739.894 km
Perigee altitude481.612 km
Semi-major axis6,988.89 km
Eccentricity0.018478
Inclination64.7754°
RAAN142.7612°
Arg. of periapsis248.0264°
True anomaly112.08434°
Mean anomaly110.1121°
Eccentric anomaly111.09983°
Mean motion3.71476 °/min
BSTAR0.00093208
Orbital period96.91 mins
Loading maneuver chart data...
Loading historical data...
Loading historical data...
Loading historical data...
Loading historical data...
Loading historical data...
Loading historical data...
Loading historical data...

LMRST-SAT Visibility forecast

Observer location: undefined°, undefined

Span
Click to sort rows by Start time (UTC) header in descending order
Start Az.
Max El. time (UTC)
Max El. Az.
Max El.
End time (UTC)
End Az.
9 mins2024-12-26 11:34:49.571Z216.179° SW2024-12-26 11:39:49.571Z354.581° N43.341°2024-12-26 11:43:49.571Z28.663° NE
8 mins2024-12-26 20:04:49.571Z334.537° NNW2024-12-26 20:08:49.571Z93.651° ESE42.438°2024-12-26 20:12:49.571Z140.834° SSE
6 mins2024-12-27 10:12:49.571Z147.207° SSE2024-12-27 10:14:49.571Z113.338° SE23.52°2024-12-27 10:18:49.571Z58.219° ENE
|